Flag for Germany Weather past 2 weeks in Alsdorf, North Rhine-Westphalia, Germany

Now
75 °F

Clear.


Feels Like: 78 °F
Forecast: 67 / 87 °F
Wind: 5 mph from Southeast

Location: Geilenkirchen Airport

Current Time: Jul 2, 2015 at 3:51:23 AM

Latest Report: Jul 2, 2015 at 2:50 AM


Visibility: 10 mi

Pressure: 30.04 "Hg

Humidity: 54%

Dew point: 57 °F

Location of AlsdorfLocation

Historic Weather in Alsdorf — Graph

°F

Alsdorf temperature yesterday

Maximum temperature yesterday: 95 °F (at 4:50 PM)
Minimum temperature yesterday: 64 °F (at 5:50 AM)
Average temperature yesterday: 80 °F

Past Weeks' High & Low Weather Summary

 TemperatureHumidityPressure
High95 °F (Jul 1, 4:50 PM)94% (Jun 18, 6:50 AM)30.30 "Hg (Jun 18, 6:50 AM)
Low43 °F (Jun 17, 3:50 AM)29% (Jun 30, 7:50 PM)29.71 "Hg (Jun 22, 7:50 PM)
Average64 °F65%30.08 "Hg
* Reported Jun 17 2:50 AM — Jul 2 2:50 AM, Alsdorf, Weather by CustomWeather, © 2015

Note: Actual official high and low records may vary slightly from our data, if they occured in-between our weather recording intervals... More about our weather records

Advertising

Alsdorf weather history for previous 24 hours

 ConditionsComfort  
Time TempWeatherWind HumidityBarometerVisibility
2:50 AM
Thu, Jul 2
75 °FClear.5 mph54%30.04 "Hg10 mi
1:50 AM77 °FClear.8 mph51%30.04 "Hg10 mi
12:50 AM79 °FClear.10 mph48%30.04 "Hg10 mi
11:50 PM
Wed, Jul 1
81 °FClear.10 mph45%30.04 "Hg10 mi
10:50 PM82 °FSunny.9 mph45%30.01 "Hg10 mi
9:50 PM86 °FSunny.10 mph40%30.01 "Hg10 mi
8:50 PM90 °FSunny.14 mph36%29.98 "Hg10 mi
7:50 PM91 °FSunny.12 mph34%29.98 "Hg10 mi
6:50 PM93 °FSunny.15 mph32%29.98 "Hg10 mi
5:50 PM93 °FSunny.18 mph32%30.01 "Hg10 mi
4:50 PM95 °FSunny.16 mph32%30.01 "Hg10 mi
3:50 PM93 °FSunny.17 mph32%30.01 "Hg10 mi
2:50 PM91 °FSunny.18 mph36%30.01 "Hg10 mi
1:50 PM90 °FSunny.18 mph36%30.04 "Hg10 mi
12:50 PM88 °FSunny.14 mph38%30.04 "Hg10 mi
11:50 AM84 °FSunny.15 mph43%30.07 "Hg10 mi
10:50 AM81 °FSunny.15 mph45%30.07 "Hg10 mi
9:50 AM77 °FSunny.12 mph47%30.07 "Hg10 mi
8:50 AM73 °FSunny.13 mph53%30.07 "Hg10 mi
7:50 AM68 °FSunny.9 mph60%30.07 "Hg10 mi
6:50 AM66 °FSunny.10 mph60%30.07 "Hg10 mi
5:50 AM64 °FClear.12 mph64%30.07 "Hg10 mi
4:50 AM66 °FClear.7 mph60%30.07 "Hg10 mi
3:50 AM66 °FClear.9 mph64%30.07 "Hg10 mi
Weather by CustomWeather, © 2015

See weather overviewHow to use our weather pages